Date String (YYYY-MM-DD hh:mm:ss) UTC,Instrument flags,Ambient pressure (hPa),Sample flow (lpm),Bypass flow (lpm),Sample temperature (°C),Ambient temperature (°C),ASC tube jacket temperature (°C),LED temperature (°C),Box temperature (°C),Sample RH (%),Span deviation,Mass concentration (μg/m³),Mass concentration (μg/m³),Mass concentration (μg/m³)
DateTimeUTC,F1_M11,P_M11,Q1_M11,Q2_M11,T1_M11,T2_M11,T3_M11,T4_M11,T5_M11,U1_M11,ZSPAN_M11,X0_M11,X2_M11,X1_M11
2021-11-18 05:00:00,,0834.6,5.00,0.00,22.4,21.9,00.0,31.4,24.1,09.4,0000.0,0013.67,0005.03,0003.82
2021-11-18 05:01:00,,0834.6,5.00,0.00,22.4,21.8,00.0,31.4,24.1,09.5,0000.0,0014.52,0005.08,0003.83
2021-11-18 05:02:00,,0834.6,4.99,0.00,22.4,21.7,00.0,31.4,24.1,09.5,0000.0,0015.57,0005.09,0003.84
2021-11-18 05:03:00,,0834.6,5.01,0.00,22.3,21.7,00.0,31.4,24.0,09.5,0000.0,0015.94,0005.11,0003.84
2021-11-18 05:04:00,,0834.6,4.99,0.00,22.3,21.6,00.0,31.4,24.0,09.5,0000.0,0016.37,0005.15,0003.84
2021-11-18 05:05:00,,0834.6,5.00,0.00,22.3,21.6,00.0,31.4,24.0,09.5,0000.0,0016.71,0005.15,0003.83
2021-11-18 05:06:00,,0834.6,5.00,0.00,22.3,21.5,00.0,31.4,23.9,09.5,0000.0,0017.65,0005.14,0003.82
2021-11-18 05:07:00,,0834.6,5.00,0.00,22.2,21.4,00.0,31.4,23.9,09.5,0000.0,0017.76,0005.11,0003.81
2021-11-18 05:08:00,,0834.6,4.99,0.00,22.2,21.4,00.0,31.3,23.9,09.5,0000.0,0016.90,0005.11,0003.82
2021-11-18 05:09:00,,0834.6,5.00,0.00,22.2,21.7,00.0,31.4,23.9,09.5,0000.0,0016.05,0005.08,0003.81
2021-11-18 05:10:00,,0834.6,5.00,0.00,22.3,22.4,00.0,31.4,24.2,09.4,0000.0,0015.81,0005.04,0003.79
2021-11-18 05:11:00,,0834.7,5.01,0.00,22.4,23.1,00.0,31.4,24.3,09.4,0000.0,0015.77,0004.98,0003.77
2021-11-18 05:12:00,,0834.6,4.99,0.00,22.5,23.0,00.0,31.4,24.4,09.3,0000.0,0014.59,0004.95,0003.75
2021-11-18 05:13:00,,0834.6,5.01,0.00,22.5,22.7,00.0,31.4,24.4,09.3,0000.0,0013.97,0004.94,0003.75
2021-11-18 05:14:00,,0834.6,5.00,0.00,22.5,22.5,00.0,31.4,24.3,09.3,0000.0,0013.98,0004.92,0003.75
2021-11-18 05:15:00,,0834.6,5.00,0.00,22.5,22.3,00.0,31.4,24.2,09.4,0000.0,0013.14,0004.89,0003.74
2021-11-18 05:16:00,,0834.6,5.01,0.00,22.4,22.1,00.0,31.4,24.2,09.4,0000.0,0012.78,0004.88,0003.75
2021-11-18 05:17:00,,0834.6,4.99,0.00,22.4,22.0,00.0,31.4,24.2,09.4,0000.0,0013.36,0004.90,0003.75
2021-11-18 05:18:00,,0834.7,5.00,0.00,22.4,21.9,00.0,31.4,24.1,09.4,0000.0,0013.07,0004.88,0003.75
2021-11-18 05:19:00,,0834.7,5.02,0.00,22.4,21.8,00.0,31.4,24.1,09.4,0000.0,0013.91,0004.92,0003.77
2021-11-18 05:20:00,,0834.7,4.99,0.00,22.3,21.7,00.0,31.4,24.0,09.4,0000.0,0014.79,0004.95,0003.78
2021-11-18 05:21:00,,0834.6,5.01,0.00,22.3,21.6,00.0,31.4,24.0,09.4,0000.0,0015.43,0004.96,0003.80
2021-11-18 05:22:00,,0834.7,5.00,0.00,22.3,21.6,00.0,31.4,24.0,09.4,0000.0,0015.07,0004.97,0003.82
2021-11-18 05:23:00,,0834.7,4.99,0.00,22.3,21.5,00.0,31.4,23.9,09.5,0000.0,0015.23,0004.97,0003.83
2021-11-18 05:24:00,,0834.6,5.00,0.00,22.2,21.5,00.0,31.4,23.9,09.5,0000.0,0015.76,0004.94,0003.83
2021-11-18 05:25:00,,0834.7,5.00,0.00,22.2,21.4,00.0,31.4,23.9,09.5,0000.0,0015.64,0004.95,0003.82
2021-11-18 05:26:00,,0834.7,5.01,0.00,22.2,21.5,00.0,31.3,23.9,09.5,0000.0,0015.63,0004.96,0003.85
2021-11-18 05:27:00,,0834.6,4.99,0.00,22.2,22.0,00.0,31.4,24.0,09.5,0000.0,0015.93,0004.97,0003.85
2021-11-18 05:28:00,,0834.6,4.99,0.00,22.4,22.8,00.0,31.4,24.2,09.4,0000.0,0014.87,0004.94,0003.86
2021-11-18 05:29:00,,0834.6,5.01,0.00,22.5,23.1,00.0,31.4,24.4,09.4,0000.0,0015.92,0005.01,0003.85
2021-11-18 05:30:00,,0834.7,5.00,0.00,22.5,22.8,00.0,31.4,24.4,09.4,0000.0,0015.48,0005.00,0003.85
2021-11-18 05:31:00,,0834.7,5.01,0.00,22.5,22.6,00.0,31.4,24.3,09.4,0000.0,0014.93,0004.99,0003.84
2021-11-18 05:32:00,,0834.7,5.00,0.00,22.5,22.4,00.0,31.4,24.2,09.4,0000.0,0014.71,0005.08,0003.83
2021-11-18 05:33:00,,0834.6,5.00,0.00,22.4,22.2,00.0,31.4,24.2,09.4,0000.0,0015.33,0005.14,0003.81
2021-11-18 05:34:00,,0834.7,5.00,0.00,22.4,22.0,00.0,31.4,24.1,09.4,0000.0,0015.63,0005.19,0003.81
2021-11-18 05:35:00,,0834.7,5.01,0.00,22.4,21.9,00.0,31.4,24.1,09.4,0000.0,0015.65,0005.29,0003.82
2021-11-18 05:36:00,,0834.7,5.00,0.00,22.3,21.8,00.0,31.4,24.0,09.4,0000.0,0015.73,0005.33,0003.83
2021-11-18 05:37:00,,0834.7,4.99,0.00,22.3,21.7,00.0,31.4,24.0,09.4,0000.0,0016.71,0005.33,0003.81
2021-11-18 05:38:00,,0834.7,5.01,0.00,22.3,21.6,00.0,31.4,24.0,09.5,0000.0,0017.66,0005.38,0003.80
2021-11-18 05:39:00,,0834.7,5.01,0.00,22.3,21.6,00.0,31.4,23.9,09.5,0000.0,0018.13,0005.43,0003.79
2021-11-18 05:40:00,,0834.7,4.99,0.00,22.2,21.5,00.0,31.4,23.9,09.5,0000.0,0017.54,0005.48,0003.79
2021-11-18 05:41:00,,0834.7,5.02,0.00,22.2,21.5,00.0,31.4,23.9,09.5,0000.0,0017.16,0005.46,0003.79
2021-11-18 05:42:00,,0834.7,4.99,0.00,22.2,21.4,00.0,31.3,23.9,09.5,0000.0,0016.86,0005.47,0003.79
2021-11-18 05:43:00,,0834.7,4.99,0.00,22.2,21.5,00.0,31.3,23.8,09.5,0000.0,0016.84,0005.45,0003.78
2021-11-18 05:44:00,,0834.7,5.00,0.00,22.2,22.0,00.0,31.3,24.0,09.5,0000.0,0017.17,0005.41,0003.79
2021-11-18 05:45:00,,0834.7,5.01,0.00,22.3,22.7,00.0,31.4,24.2,09.4,0000.0,0017.70,0005.38,0003.80
2021-11-18 05:46:00,,0834.7,4.99,0.00,22.5,23.1,00.0,31.4,24.4,09.4,0000.0,0017.34,0005.32,0003.80
2021-11-18 05:47:00,,0834.7,5.00,0.00,22.5,22.8,00.0,31.4,24.4,09.4,0000.0,0017.40,0005.34,0003.81
2021-11-18 05:48:00,,0834.7,5.01,0.00,22.5,22.6,00.0,31.4,24.3,09.4,0000.0,0016.87,0005.34,0003.82
2021-11-18 05:49:00,,0834.7,5.01,0.00,22.5,22.4,00.0,31.4,24.2,09.4,0000.0,0016.15,0005.34,0003.82
2021-11-18 05:50:00,,0834.7,5.00,0.00,22.4,22.2,00.0,31.4,24.2,09.4,0000.0,0016.26,0005.34,0003.82
2021-11-18 05:51:00,,0834.7,5.00,0.00,22.4,22.0,00.0,31.4,24.1,09.4,0000.0,0016.30,0005.30,0003.82
2021-11-18 05:52:00,,0834.7,5.00,0.00,22.4,21.8,00.0,31.4,24.1,09.4,0000.0,0016.85,0005.29,0003.82
2021-11-18 05:53:00,,0834.7,5.00,0.00,22.3,21.7,00.0,31.4,24.0,09.4,0000.0,0018.00,0005.31,0003.82
2021-11-18 05:54:00,,0834.7,5.00,0.00,22.3,21.7,00.0,31.4,24.0,09.5,0000.0,0018.54,0005.29,0003.82
2021-11-18 05:55:00,,0834.7,4.99,0.00,22.3,21.6,00.0,31.4,23.9,09.5,0000.0,0018.02,0005.28,0003.83
2021-11-18 05:56:00,,0834.7,5.01,0.00,22.2,21.5,00.0,31.4,23.9,09.5,0000.0,0017.59,0005.26,0003.82
2021-11-18 05:57:00,,0834.7,4.99,0.00,22.2,21.5,00.0,31.4,23.9,09.5,0000.0,0017.69,0005.30,0003.82
2021-11-18 05:58:00,,0834.7,5.01,0.00,22.2,21.4,00.0,31.3,23.8,09.5,0000.0,0018.18,0005.35,0003.82
2021-11-18 05:59:00,,0834.7,4.99,0.00,22.2,21.5,00.0,31.3,23.8,09.5,0000.0,0018.34,0005.35,0003.81
